Home   Weather   47°15'N, 122°25'W   Past weeks
Flag for USA

Past Weather in 47°15'N, 122°25'W, USA — Yesterday and Last 2 Weeks

Now
56 °F

Broken clouds.


Feels Like: 56 °F
Forecast: 66 / 49 °F
Wind: 3 mph from Southeast

Location: Tacoma Narrows Airport

Current Time: Jun 24, 2019 at 10:56:23 am

Latest Report: Jun 24, 2019 at 9:53 am


Visibility: 10 mi

Pressure: 30.09 "Hg

Humidity: 67%

Dew Point: 45 °F

Location of 47°15'N, 122°25'WLocation

Past Weather in 47°15'N, 122°25'W — Graph

°F

47°15'N, 122°25'W Temperature Yesterday

Maximum temperature yesterday: 65 °F (at 1:53 pm)
Minimum temperature yesterday: 52 °F (at 4:53 am)
Average temperature yesterday: 57 °F

High & Low Weather Summary for the Past Weeks

 TemperatureHumidityPressure
High91 °F (Jun 12, 3:53 pm)100% (Jun 18, 6:43 am)30.41 "Hg (Jun 18, 6:43 am)
Low48 °F (Jun 20, 4:53 am)26% (Jun 12, 3:53 pm)29.79 "Hg (Jun 12, 7:53 pm)
Average60 °F69%30.13 "Hg
* Reported Jun 9 8:53 am — Jun 24 8:53 am, 47°15'N, 122°25'W. Weather by CustomWeather, © 2019

Note: Actual official high and low records may vary slightly from our data, if they occured in-between our weather recording intervals... More about our weather records

Advertising

47°15'N, 122°25'W Weather History for the Previous 24 Hours

Scroll right to see more
 ConditionsComfort  
Time TempWeatherWind HumidityBarometerVisibility
8:53 am
Mon, Jun 24
54 °FMore clouds than sun.5 mph80%30.09 "Hg10 mi
7:53 am52 °FMore clouds than sun.No wind86%30.09 "Hg10 mi
7:19 am51 °FLow clouds.3 mph89%30.09 "Hg10 mi
7:12 am52 °FMore clouds than sun.3 mph86%30.09 "Hg10 mi
6:53 am52 °FOvercast.No wind86%30.09 "Hg10 mi
5:53 am51 °FOvercast.3 mph86%30.10 "Hg10 mi
4:53 am52 °FOvercast.3 mph83%30.10 "Hg10 mi
3:53 am53 °FOvercast.3 mph83%30.11 "Hg10 mi
3:27 am53 °FMostly cloudy.No wind77%30.13 "Hg10 mi
2:53 am53 °FMostly cloudy.3 mph77%30.12 "Hg10 mi
2:00 am53 °FMostly cloudy.3 mph77%30.12 "Hg10 mi
1:14 am53 °FOvercast.5 mph77%30.12 "Hg10 mi
12:53 am54 °FOvercast.5 mph74%30.12 "Hg10 mi
12:06 am55 °FMostly cloudy.5 mph72%30.13 "Hg10 mi
11:53 pm
Sun, Jun 23
55 °FMostly cloudy.3 mph72%30.13 "Hg10 mi
11:25 pm56 °FOvercast.3 mph67%30.13 "Hg10 mi
10:53 pm55 °FOvercast.No wind74%30.14 "Hg10 mi
9:53 pm57 °FOvercast.5 mph62%30.14 "Hg10 mi
8:53 pm57 °FOvercast.No wind69%30.13 "Hg10 mi
7:53 pm59 °FScattered clouds.7 mph62%30.14 "Hg10 mi
6:53 pm64 °FBroken clouds.7 mph52%30.13 "Hg10 mi
5:53 pm63 °FBroken clouds.8 mph54%30.13 "Hg10 mi
4:53 pm65 °FBroken clouds.10 mph52%30.14 "Hg10 mi
3:53 pm65 °FPartly sunny.7 mph52%30.14 "Hg10 mi
2:53 pm64 °FMostly cloudy.5 mph54%30.17 "Hg10 mi
1:53 pm65 °FPartly sunny.8 mph54%30.17 "Hg10 mi
12:53 pm62 °FPartly sunny.7 mph60%30.19 "Hg10 mi
12:32 pm61 °FPartly sunny.8 mph62%30.19 "Hg10 mi
11:53 am59 °FMostly cloudy.8 mph67%30.19 "Hg10 mi
10:53 am56 °FOvercast.8 mph72%30.18 "Hg10 mi
Weather by CustomWeather, © 2019

See weather overview